Location: *
(29.1167°S, 130.0000°E)
Time: 22:07:14
(UTC+00:00)

Cosmos 1271 Rocket - Pass Details

Date: 21 July 2019
Orbit: 499 x 546 km, 81.2° (Epoch: 21 August)

Event Time Altitude Azimuth Distance (km) Brightness Sun altitude
Rises 09:41:22 0° 179° (S) 2,626 6.1 -12.9°
Reaches altitude 10° 09:43:36 10° 171° (S) 1,737 5.1 -13.4°
Maximum altitude 09:47:13 41° 99° (E) 754 3.0 -14.1°
Drops below altitude 10° 09:50:49 10° 28° (NNE) 1,732 5.2 -14.9°
Sets 09:53:01 0° 21° (NNE) 2,617 6.2 -15.4°
